Temp
78 77 76 77 78 78 78 77 74 69 69 71 71 73 76 74 71 67 66 68 68 67 67 67 67 67 67 67 67 67 68 69 69 69 69 70 72 73
78 76 75 77 76 75 75 73 76 73 69 73 71 78 74 73 71 67 67 67 67 66 66 65 66 66 66 66 65 65 66 66 67 67 67 67 68 70
76 76 76 76 78 75 76 74 75 74 71 71 74 74 71 69 68 67 66 63 64 66 65 64 64 64 64 63 63 63 63 64 64 65 66 66 67 67
75 75 75 81 76 76 75 74 73 72 72 70 72 72 71 68 67 65 71 69 64 66 64 63 62 62 61 60 60 60 60 61 61 62 63 64 65 65
76 74 76 76 74 75 75 74 74 75 73 71 71 71 70 71 70 67 66 64 68 66 64 63 62 62 60 59 59 58 57 58 58 58 60 62 63 63
76 76 76 75 76 75 75 74 74 72 72 71 70 69 70 70 68 67 63 64 62 69 67 64 63 63 62 60 60 59 57 56 56 57 57 58 60 61
75 76 76 74 72 71 74 73 72 71 70 70 69 69 69 69 68 68 65 64 63 67 64 62 63 59 58 61 63 61 59 58 56 56 56 56 57 58
73 74 75 73 71 70 70 69 71 71 70 70 68 68 68 69 70 69 68 66 63 68 62 61 63 57 56 54 62 61 59 58 57 57 56 56 56 57
74 74 75 78 73 69 67 67 67 67 68 68 68 67 69 67 69 70 69 68 67 69 67 64 62 58 57 59 61 60 59 59 58 57 57 56 56 55
73 73 73 73 71 72 68 67 63 61 61 67 63 60 61 62 66 68 70 66 66 62 65 64 61 58 58 55 61 61 60 59 58 57 56 55 54 54
68 63 67 66 64 66 69 64 60 58 62 61 61 61 61 62 62 65 62 64 63 63 62 66 66 60 60 58 57 61 59 58 57 57 56 54 53 54
61 59 60 61 60 62 67 63 58 59 63 58 58 59 61 61 62 62 63 63 64 59 61 62 64 64 59 61 56 56 56 57 55 56 55 54 52 55
63 60 57 56 55 56 60 66 65 61 60 60 58 57 56 56 57 58 57 58 55 56 60 61 61 62 61 55 58 58 56 54 52 52 54 53 52 54
58 56 53 52 52 54 57 56 57 59 58 57 55 53 51 51 51 53 55 55 57 57 60 61 60 60 55 52 55 57 57 57 57 54 54 53 54 54
55 53 53 51 53 54 55 56 57 57 56 55 52 52 52 53 55 56 57 59 60 61 62 60 58 57 56 51 54 54 53 55 56 55 55 53 53 54
55 55 55 55 55 55 56 57 57 57 55 53 52 52 53 53 52 54 56 58 58 58 60 61 59 58 56 54 54 52 53 51 53 54 55 55 55 53
54 55 55 55 54 54 55 55 56 55 54 53 52 52 54 56 57 59 57 58 56 56 56 58 58 56 54 55 54 53 51 51 52 53 54 52 52 52
55 53 52 53 53 52 53 53 54 55 54 54 54 54 55 55 57 58 59 58 56 56 56 56 56 55 55 55 58 53 53 51 51 51 51 50 49 52
53 52 51 51 51 52 54 54 53 53 55 52 54 56 56 57 55 57 57 55 54 54 55 55 53 51 47 47 52 56 53 52 52 51 51 51 50 52
54 53 53 53 54 54 54 52 52 54 54 52 53 53 52 53 52 54 52 52 53 51 50 51 50 49 48 47 47 51 53 52 50 49 50 51 53 56
52 53 53 52 51 51 51 51 51 51 51 51 53 54 52 53 51 51 49 50 51 49 48 48 50 55 50 51 48 49 52 52 54 51 50 48 47 48
55 55 54 53 52 51 50 50 50 50 49 49 50 51 51 51 51 51 50 49 48 49 48 49 50 50 49 48 47 47 49 52 53 54 55 54 48 44
55 55 54 54 53 52 51 51 51 51 50 51 50 49 50 51 50 50 50 49 49 48 48 47 48 47 47 47 47 46 48 48 48 49 50 55 54 56
MSLP
1019.84 1019.82 1019.91 1019.94 1020.16 1019.88 1019.57 1019.50 1020.03 1020.48 1020.40 1019.76 1019.85 1019.73 1019.91 1020.38 1021.06 1020.97 1020.75 1021.08 1021.10 1021.31 1021.53 1021.42 1021.34 1021.31 1021.21 1021.11 1021.06 1020.89 1020.60 1020.25 1019.92 1019.66 1019.36 1018.99 1018.51 1018.09
1019.60 1019.78 1019.94 1019.76 1019.81 1019.66 1019.48 1019.60 1019.41 1019.36 1019.89 1019.52 1019.80 1019.85 1020.18 1020.91 1021.10 1020.79 1021.23 1021.69 1021.42 1021.60 1021.65 1021.71 1021.80 1021.81 1021.75 1021.64 1021.49 1021.36 1021.20 1020.97 1020.70 1020.39 1020.07 1019.77 1019.37 1018.96
1019.42 1019.40 1019.55 1019.49 1019.16 1018.98 1019.05 1019.24 1019.30 1019.34 1019.63 1019.69 1019.54 1019.57 1020.49 1020.83 1020.92 1021.29 1021.65 1021.91 1021.86 1021.76 1021.86 1021.89 1022.11 1022.13 1022.14 1022.11 1021.98 1021.81 1021.69 1021.52 1021.24 1020.92 1020.58 1020.34 1020.26 1019.89
1019.15 1019.29 1019.34 1019.04 1018.86 1018.66 1018.72 1019.06 1019.33 1019.53 1019.71 1019.88 1019.60 1019.80 1019.97 1020.45 1020.66 1021.18 1021.30 1021.81 1021.98 1022.10 1022.14 1022.30 1022.32 1022.51 1022.54 1022.57 1022.54 1022.32 1022.10 1021.95 1021.82 1021.63 1021.31 1021.04 1020.82 1020.47
1018.98 1019.11 1019.02 1018.87 1018.82 1018.69 1018.60 1018.80 1018.98 1019.24 1019.44 1019.69 1019.61 1019.51 1019.96 1020.49 1020.81 1021.07 1021.41 1021.99 1022.31 1022.56 1022.48 1022.57 1022.73 1023.06 1023.07 1023.02 1022.96 1022.88 1022.73 1022.47 1022.27 1022.16 1022.02 1021.75 1021.41 1021.22
1018.55 1018.50 1018.51 1018.59 1018.42 1018.32 1018.35 1018.55 1018.77 1019.13 1019.34 1019.43 1019.33 1019.30 1019.51 1020.00 1020.41 1020.90 1021.56 1021.72 1022.35 1022.22 1022.67 1022.77 1023.03 1023.41 1023.25 1023.14 1023.16 1023.29 1023.33 1023.17 1022.94 1022.82 1022.58 1022.37 1022.19 1021.99
1017.95 1018.00 1018.09 1018.14 1018.22 1018.32 1018.38 1018.38 1018.58 1019.01 1019.36 1019.49 1019.60 1019.45 1019.51 1019.61 1019.71 1020.16 1020.62 1021.26 1021.87 1021.60 1022.64 1022.90 1023.04 1023.64 1023.77 1023.48 1023.23 1023.30 1023.37 1023.44 1023.48 1023.42 1023.27 1023.10 1022.87 1022.69
1017.59 1017.54 1017.63 1017.79 1017.98 1018.25 1018.37 1018.48 1018.69 1018.96 1019.06 1019.19 1019.36 1019.62 1019.41 1019.07 1019.09 1019.37 1019.97 1020.74 1021.27 1021.05 1021.90 1022.76 1023.06 1023.83 1023.90 1023.76 1023.16 1023.12 1023.25 1023.28 1023.33 1023.38 1023.39 1023.39 1023.37 1023.29
1017.17 1017.26 1017.37 1017.50 1017.80 1018.23 1018.57 1018.69 1018.93 1019.04 1019.07 1018.83 1019.26 1019.53 1019.34 1019.12 1018.75 1018.80 1019.05 1019.61 1019.97 1020.25 1020.75 1022.17 1022.95 1023.68 1023.83 1023.70 1023.42 1023.28 1023.29 1023.41 1023.52 1023.65 1023.59 1023.46 1023.50 1023.50
1017.07 1017.14 1017.27 1017.43 1017.77 1018.02 1018.67 1019.02 1019.27 1019.24 1019.11 1019.09 1019.38 1019.79 1019.64 1019.27 1018.91 1018.54 1018.55 1019.32 1020.00 1020.54 1020.52 1021.58 1022.77 1023.23 1023.76 1023.86 1023.48 1023.36 1023.22 1023.29 1023.49 1023.53 1023.29 1023.44 1023.42 1023.52
1017.13 1017.39 1017.56 1017.72 1017.76 1017.88 1018.53 1018.97 1019.67 1019.94 1019.81 1019.75 1019.96 1020.16 1020.02 1019.68 1019.17 1018.75 1019.11 1019.60 1020.23 1020.83 1020.95 1020.95 1021.70 1022.78 1023.36 1023.65 1023.77 1023.70 1023.54 1023.42 1023.44 1023.44 1023.57 1023.45 1023.36 1023.47
1017.77 1017.70 1017.65 1017.93 1017.82 1017.89 1018.14 1018.95 1019.57 1019.92 1019.89 1020.26 1020.57 1020.46 1020.37 1020.24 1019.87 1019.81 1019.84 1019.66 1020.14 1021.01 1021.33 1021.72 1021.45 1021.60 1022.89 1023.25 1023.71 1023.87 1024.02 1023.91 1023.69 1023.68 1023.47 1023.73 1023.64 1023.74
1017.79 1018.14 1018.34 1018.22 1017.82 1017.82 1018.02 1018.32 1019.08 1019.84 1020.28 1020.51 1020.99 1021.21 1021.27 1021.33 1021.38 1021.20 1021.04 1021.38 1020.88 1021.11 1021.63 1021.59 1021.63 1021.64 1021.76 1022.82 1023.00 1023.30 1023.60 1023.83 1023.84 1023.72 1023.60 1023.60 1023.54 1023.51
1018.19 1018.69 1018.99 1018.93 1018.30 1018.35 1018.74 1019.01 1019.45 1019.85 1020.25 1020.69 1021.19 1021.63 1021.90 1022.08 1022.26 1022.34 1022.14 1022.01 1021.80 1021.77 1021.74 1021.71 1021.89 1021.75 1021.90 1022.71 1022.97 1023.18 1023.49 1023.63 1023.56 1023.54 1023.72 1023.93 1023.89 1023.91
1018.81 1019.15 1019.32 1019.48 1019.34 1019.22 1019.46 1019.79 1020.18 1020.48 1020.77 1021.25 1021.72 1022.11 1022.24 1022.24 1021.90 1021.98 1021.94 1021.88 1021.86 1022.01 1021.92 1021.98 1021.90 1021.86 1022.03 1022.51 1023.03 1023.43 1023.57 1023.63 1023.40 1023.39 1023.38 1023.61 1023.60 1023.85
1019.22 1019.66 1019.71 1019.76 1019.72 1019.95 1020.27 1020.32 1020.51 1020.68 1020.99 1021.50 1022.05 1022.31 1022.50 1022.54 1022.23 1022.09 1022.08 1021.99 1021.78 1021.82 1022.15 1022.23 1022.27 1022.41 1022.88 1023.09 1023.29 1023.66 1023.62 1024.05 1023.75 1023.41 1023.16 1023.11 1023.53 1023.84
1019.46 1019.81 1020.21 1020.37 1020.50 1020.60 1020.77 1020.84 1021.06 1021.05 1021.16 1021.63 1022.03 1022.28 1022.34 1022.26 1021.86 1021.60 1021.81 1021.89 1022.07 1022.11 1021.69 1021.94 1022.52 1022.65 1023.33 1023.51 1023.77 1023.81 1023.77 1024.05 1023.97 1023.88 1023.67 1023.70 1024.06 1024.08
1019.86 1020.10 1020.43 1020.78 1021.04 1021.15 1021.29 1021.46 1021.68 1021.64 1021.88 1022.02 1022.05 1022.10 1022.20 1022.08 1021.80 1021.52 1021.66 1022.03 1022.39 1022.48 1022.38 1022.07 1022.30 1022.37 1022.73 1023.22 1023.73 1024.24 1023.90 1023.99 1023.71 1023.99 1023.95 1023.96 1024.04 1024.11
1020.28 1020.39 1020.49 1021.04 1021.33 1021.26 1021.44 1021.52 1021.78 1021.81 1021.87 1022.19 1022.34 1022.15 1021.79 1022.07 1022.27 1022.26 1022.08 1021.86 1022.38 1022.79 1022.99 1022.82 1023.04 1023.38 1023.39 1023.77 1023.81 1023.83 1024.01 1024.21 1024.13 1024.08 1023.95 1023.79 1023.98 1023.59
1020.42 1020.63 1020.86 1020.83 1021.27 1021.51 1021.55 1021.77 1021.96 1021.93 1022.03 1021.90 1021.89 1022.27 1022.23 1022.08 1022.20 1022.51 1022.51 1022.60 1022.51 1022.89 1023.25 1023.52 1023.30 1023.44 1023.65 1024.12 1024.30 1024.02 1023.78 1023.76 1023.74 1024.03 1023.85 1023.65 1023.34 1022.89
1020.13 1020.57 1020.76 1021.01 1021.13 1021.36 1021.44 1021.56 1021.78 1021.83 1021.86 1022.02 1021.99 1021.98 1022.08 1022.25 1022.44 1022.77 1022.98 1022.82 1022.81 1022.98 1023.44 1023.63 1023.65 1023.26 1023.58 1023.78 1024.13 1024.00 1023.39 1023.41 1023.47 1023.33 1023.36 1023.70 1023.56 1023.46
1019.82 1020.16 1020.37 1020.63 1021.00 1021.40 1021.60 1021.67 1021.75 1021.81 1021.96 1022.05 1022.13 1022.13 1022.19 1022.35 1022.56 1022.62 1022.82 1023.14 1023.08 1023.01 1023.36 1023.58 1023.35 1023.36 1023.91 1024.04 1024.23 1024.08 1023.56 1023.09 1022.96 1022.60 1022.69 1022.92 1023.01 1023.03
1019.19 1019.62 1019.97 1020.44 1020.65 1021.05 1021.18 1021.40 1021.47 1021.63 1021.66 1021.78 1022.00 1022.21 1022.26 1022.48 1022.59 1022.54 1022.99 1022.88 1023.53 1023.56 1023.52 1023.55 1023.55 1023.38 1023.83 1023.94 1023.88 1023.98 1023.96 1023.56 1023.37 1022.86 1022.41 1021.94 1022.27 1022.10
Wind_Speed
4 3 3 2 2 2 3 2 3 2 2 2 0 3 6 7 5 3 8 13 16 16 15 16 17 18 19 19 19 19 20 20 20 20 20 20 19 18
3 1 2 3 2 0 1 1 2 3 0 2 2 4 6 5 8 8 9 11 16 16 16 16 17 18 18 18 18 18 19 19 20 20 21 21 21 21
3 3 5 5 4 2 1 2 3 1 2 2 2 4 5 8 7 5 6 5 7 15 16 17 17 17 17 17 17 17 17 18 18 18 19 20 22 22
5 5 7 4 3 3 1 1 2 3 1 1 2 2 3 4 5 7 6 6 5 12 16 16 17 16 16 16 16 16 16 16 16 17 18 19 19 20
5 5 6 5 5 3 2 1 1 1 1 2 1 2 4 5 4 5 6 6 6 13 14 15 16 15 15 15 13 13 13 14 15 15 16 17 18 20
6 6 6 6 6 7 5 4 2 1 1 0 1 1 2 3 3 5 4 4 5 6 8 9 12 13 14 13 14 13 10 10 11 12 12 13 15 18
6 5 3 3 4 3 2 3 3 2 2 2 2 1 2 2 4 4 4 5 4 4 5 5 5 3 4 9 14 14 11 9 8 9 10 11 11 12
6 6 5 6 5 4 3 3 1 4 4 3 3 3 4 4 3 4 4 4 4 6 4 4 4 3 3 2 13 13 10 9 7 7 7 8 8 9
6 6 4 3 6 6 6 10 9 8 5 2 2 2 3 1 2 3 4 3 3 5 4 6 4 4 3 4 10 10 10 8 7 4 4 7 7 7
4 3 1 2 2 6 6 6 6 5 4 4 5 4 3 4 4 2 3 5 5 3 2 4 4 4 3 3 7 7 9 7 7 5 5 8 7 6
3 5 3 4 3 4 4 8 7 7 11 16 14 12 13 16 11 2 2 4 3 2 4 2 4 3 3 2 3 6 5 5 4 7 10 7 8 6
4 5 9 4 4 7 4 7 8 6 6 6 5 10 12 12 18 10 5 3 4 3 4 1 1 4 4 3 3 3 2 5 3 3 6 7 4 2
4 3 3 3 9 11 8 7 7 10 10 8 6 6 7 9 9 10 10 5 4 3 3 1 2 1 3 4 3 4 4 2 2 2 3 5 7 6
3 4 4 6 12 12 11 13 14 9 5 5 5 5 5 5 5 5 5 4 4 3 1 2 1 0 2 2 3 3 2 2 3 1 3 5 7 6
5 9 10 10 11 11 12 11 8 4 5 5 4 3 2 2 2 1 3 4 5 4 3 3 3 1 2 3 4 2 3 1 1 2 2 4 5 4
10 5 7 9 10 7 5 5 4 3 4 4 3 2 2 1 2 3 3 3 2 3 4 5 5 4 3 4 4 2 3 2 2 3 2 3 4 3
6 4 3 2 3 3 3 3 3 3 4 3 3 3 2 2 2 2 1 2 3 2 3 3 4 7 5 3 4 2 3 2 2 4 4 3 2 3
3 3 3 3 3 3 3 3 2 3 2 2 2 2 1 2 2 2 2 2 4 3 2 3 2 2 2 4 5 1 2 2 1 2 2 2 2 1
3 4 5 4 2 3 3 3 2 3 3 1 2 4 4 3 1 2 2 3 3 3 2 2 4 2 3 2 2 2 2 1 1 3 1 1 2 4
2 3 3 4 3 2 2 2 2 2 1 2 3 2 2 2 2 2 2 2 3 3 4 2 3 3 3 4 2 3 4 2 2 2 2 2 3 8
4 3 3 3 3 3 3 3 3 3 3 2 2 2 2 2 2 3 3 4 4 4 4 2 2 5 2 2 2 2 3 10 7 5 3 2 2 3
4 4 4 4 4 4 3 3 2 2 2 2 3 2 1 1 4 4 3 2 2 4 3 2 2 2 1 2 2 3 3 4 6 13 11 9 4 3
5 5 5 4 5 5 4 4 4 4 4 4 2 3 3 3 3 4 4 5 2 2 1 1 0 1 2 3 3 3 4 5 3 5 5 1 14 17
Wind_Direction
250 287 315 306 306 360 7 79 245 146 259 3 174 136 122 138 141 126 94 104 98 90 83 78 72 66 61 57 55 53 52 51 49 47 44 43 44 48
257 48 308 297 270 115 58 348 333 113 39 201 219 145 128 129 144 99 106 106 102 99 92 83 77 71 65 61 59 57 54 52 49 47 47 46 47 49
285 303 292 273 282 340 9 19 1 48 111 311 154 150 130 154 116 113 109 102 105 107 101 96 88 82 76 69 64 60 56 55 54 54 55 54 51 50
256 265 268 277 299 279 336 330 86 61 108 216 249 175 126 147 148 138 134 116 111 111 110 106 101 94 88 79 70 66 64 60 56 54 55 56 57 59
241 248 263 267 266 250 240 309 38 64 154 143 253 57 87 148 155 124 134 115 105 119 111 108 104 99 95 90 82 71 63 59 59 57 55 59 63 62
240 247 267 271 257 232 215 209 171 96 318 28 277 244 151 184 138 155 156 120 154 149 120 118 113 108 106 104 92 82 70 63 59 54 54 58 65 71
244 251 238 129 84 24 214 230 185 175 208 221 237 276 241 195 199 190 170 161 178 156 140 148 135 106 98 100 95 91 89 81 71 69 65 60 59 65
235 256 250 180 171 163 145 56 58 195 200 193 214 213 258 219 178 180 152 161 197 167 133 171 145 137 152 218 125 114 109 107 108 105 110 96 83 73
226 235 252 239 180 153 126 119 89 49 353 147 215 197 242 300 270 212 198 155 172 138 159 156 133 153 184 175 142 130 118 100 84 89 137 144 122 102
238 264 210 294 344 167 165 124 88 52 11 60 79 74 19 316 279 252 173 108 90 64 341 134 153 156 164 213 165 146 129 112 95 82 85 149 151 118
90 48 61 97 40 75 152 130 94 76 74 76 70 56 43 29 10 123 100 141 127 67 16 33 141 124 163 179 226 208 165 135 76 55 58 146 152 108
88 87 64 118 99 83 153 143 126 157 116 61 35 35 34 30 30 35 355 123 115 75 13 67 66 138 146 148 172 217 229 222 248 324 44 65 176 59
118 84 53 102 107 94 96 135 127 116 105 96 85 70 54 44 35 27 27 10 55 67 348 344 28 339 82 144 168 179 190 137 244 265 271 77 66 123
93 88 61 53 70 77 88 102 101 104 105 97 87 65 68 68 82 76 59 32 43 125 222 275 186 132 119 81 121 74 120 142 152 92 86 101 67 72
85 99 100 65 71 75 82 91 85 89 103 93 90 91 102 128 139 105 78 73 60 38 29 24 68 64 109 135 138 134 133 81 60 39 98 166 168 162
106 90 86 90 90 85 93 88 98 105 109 108 104 106 115 200 171 205 192 192 141 105 26 41 40 38 49 43 90 90 44 111 345 359 5 18 141 170
112 107 93 77 97 95 77 74 87 108 108 123 138 151 203 244 229 114 34 183 200 180 143 102 75 78 63 65 65 55 84 69 7 358 21 21 52 194
71 77 71 61 69 71 78 74 41 78 73 97 99 152 234 233 228 180 146 46 96 113 107 63 100 103 91 61 67 127 60 116 22 12 33 49 342 266
90 113 115 112 131 132 135 127 132 142 146 188 246 232 189 186 316 349 3 143 121 115 65 74 73 86 69 94 309 46 124 304 358 351 281 198 239 276
115 118 136 145 165 146 135 97 123 113 124 136 137 175 138 135 120 100 84 105 111 115 90 44 80 94 119 165 207 272 209 200 171 239 273 281 252 270
163 175 175 173 154 165 167 164 169 176 172 175 173 175 173 141 94 121 112 118 110 101 118 122 201 147 132 90 51 293 275 229 205 204 217 221 261 288
183 182 177 165 170 182 185 184 178 169 187 195 228 236 225 16 161 148 131 119 96 123 130 191 182 114 80 148 223 258 285 299 252 240 235 210 175 251
178 175 173 180 178 186 179 183 182 199 209 214 230 175 130 92 101 127 112 102 123 112 133 139 282 119 228 205 213 260 279 286 296 325 329 11 225 242